Location: Laterina
(43.5167°N, 11.7167°E)
Time: 15:30:20
(UTC+00:00)

USA 238 - Pass Details

Date: 24 September 2020
Orbit: 1006 x 1206 km, 63.4° (Epoch: 15 October)

Event Time Altitude Azimuth Distance (km) Brightness Sun altitude
Rises 18:46:50 0° 320° (NW) 3,968 7.7 -18.8°
Reaches altitude 10° 18:49:32 10° 316° (NW) 3,033 7.0 -19.3°
Maximum altitude 18:56:36 57° 241° (WSW) 1,368 4.4 -20.5°
Enters shadow 19:03:19 13° 166° (SSE) 2,925 5.7 -21.6°
